Flag for France Weather past 2 weeks in Le Havre, France

Now
63 °F

Fog.


Feels Like: 63 °F
Forecast: 60 / 73 °F
Wind: 6 mph from East

Location: La Heve

Current Time: Jul 25, 2014 at 9:28:40 AM

Latest Report: Jul 25, 2014 at 8:30 AM


Visibility: 1 mi

Pressure: 29.95 "Hg

Humidity: 94%

Dew point: 61 °F

Location of Le HavreLocation

Historic Weather in Le Havre — Graph

°F

Le Havre temperature yesterday

Maximum temperature yesterday: 81 °F (at 11:30 AM)
Minimum temperature yesterday: 66 °F (at 3:30 AM)
Average temperature yesterday: 73 °F

Past Weeks' High & Low Weather Summary

 TemperatureHumidityPressure
High86 °F (Jul 17, 5:00 PM)100% (Jul 11, 5:30 AM)30.18 "Hg (Jul 11, 5:30 AM)
Low54 °F (Jul 11, 3:00 AM)43% (Jul 17, 6:00 PM)29.74 "Hg (Jul 19, 5:00 AM)
Average66 °F81%30.01 "Hg
* Reported Jul 10 8:00 AM — Jul 25 8:30 AM, Le Havre, Weather by CustomWeather, © 2014

Note: Actual official high and low records may vary slightly from our data, if they occured in-between our weather recording intervals... More about our weather records

Advertising

Le Havre weather history for previous 24 hours

 ConditionsComfort  
Time TempWeatherWind HumidityBarometerVisibility
8:30 AM
Jul 25
63 °FFog.6 mph94%29.95 "Hg1 mi
8:00 AM61 °FFog.7 mph100%29.95 "Hg1 mi
7:30 AM61 °FFog.7 mph100%29.95 "Hg1 mi
7:00 AM61 °FFog.6 mph100%29.95 "Hg0 mi
6:30 AM61 °FFog.6 mph100%29.95 "Hg0 mi
6:00 AM61 °FFog.6 mph100%29.95 "Hg0 mi
5:30 AM61 °FFog.6 mph100%29.95 "Hg1 mi
5:00 AM63 °FFog.6 mph94%29.95 "Hg1 mi
4:30 AM63 °FFog.7 mph94%29.95 "Hg2 mi
4:00 AM63 °FFog.7 mph94%29.98 "Hg1 mi
3:30 AM63 °FFog.7 mph94%29.95 "Hg1 mi
3:00 AM61 °FFog.3 mph94%29.98 "Hg2 mi
2:30 AM61 °FFog.5 mph94%29.98 "Hg2 mi
2:00 AM63 °FClear.8 mph88%29.98 "Hg5 mi
1:30 AM63 °FClear.8 mph88%29.98 "HgN/A
1:00 AM64 °FClear.10 mph83%29.98 "HgN/A
12:30 AM64 °FClear.7 mph78%29.98 "HgN/A
12:00 AM64 °FClear.10 mph78%29.98 "HgN/A
11:30 PM
Jul 24
66 °FClear.10 mph73%29.98 "HgN/A
11:00 PM66 °FClear.10 mph68%29.98 "HgN/A
10:30 PM68 °FClear.10 mph69%29.98 "HgN/A
10:00 PM68 °FClear.10 mph73%29.98 "HgN/A
9:30 PM70 °FClear.12 mph73%29.95 "HgN/A
9:00 PM73 °FClear.13 mph65%29.95 "HgN/A
8:30 PM75 °FClear.12 mph61%29.95 "HgN/A
8:00 PM75 °FClear.13 mph61%29.95 "HgN/A
7:30 PM77 °FClear.14 mph54%29.95 "HgN/A
7:00 PM77 °FClear.15 mph57%29.95 "HgN/A
6:30 PM79 °FClear.16 mph54%29.95 "HgN/A
6:00 PM79 °FClear.17 mph54%29.95 "HgN/A
5:30 PM79 °FClear.14 mph58%29.95 "HgN/A
5:00 PM79 °FClear.15 mph58%29.95 "HgN/A
4:30 PM81 °FClear.14 mph58%29.95 "HgN/A
4:00 PM81 °FClear.13 mph62%29.95 "HgN/A
3:30 PM81 °FClear.13 mph58%29.95 "HgN/A
3:00 PM81 °FClear.13 mph62%29.95 "HgN/A
2:30 PM81 °FClear.13 mph62%29.95 "HgN/A
2:00 PM81 °FClear.16 mph58%29.98 "HgN/A
1:30 PM81 °FClear.15 mph62%29.98 "HgN/A
1:00 PM81 °FClear.13 mph58%29.98 "HgN/A
12:30 PM81 °FClear.13 mph54%29.98 "HgN/A
12:00 PM81 °FClear.12 mph54%29.98 "HgN/A
11:30 AM81 °FClear.7 mph62%29.98 "HgN/A
11:00 AM77 °FClear.7 mph61%29.98 "HgN/A
10:30 AM75 °FClear.6 mph69%29.95 "HgN/A
10:00 AM73 °FClear.8 mph74%29.95 "HgN/A
9:30 AM73 °FClear.6 mph74%29.95 "HgN/A
9:00 AM72 °FClear.5 mph78%29.95 "HgN/A
Weather by CustomWeather, © 2014

See weather overviewHow to use our weather pages